This is the latest recevied weather packets stored in our database for station/object SV9TNF-56. If no packets are shown the sender has not sent any weather packets the latest 10 day(s).
| Time | Temp. | Humidity | Pressure | Rain* | Wind** | Luminosity | Snow |
|---|---|---|---|---|---|---|---|
| 1788073333 | 24.44° C | 68% | 1019.3 hPa | 0 mm | 12.52 m/s, 306° | - | - |
| 1788073033 | 24.44° C | 67% | 1019.3 hPa | 0 mm | 6.71 m/s, 300° | - | - |
| 1788072733 | 24.44° C | 67% | 1019.6 hPa | 0 mm | 12.52 m/s, 282° | - | - |
| 1788072432 | 24.44° C | 67% | 1019.6 hPa | 0 mm | 7.15 m/s, 166° | - | - |
| 1788072132 | 24.44° C | 68% | 1019.3 hPa | 0 mm | 1.79 m/s, 192° | - | - |
| 1788071832 | 23.89° C | 69% | 1019.3 hPa | 0 mm | 8.05 m/s, 179° | - | - |
| 1788071532 | 23.89° C | 72% | 1019 hPa | 0 mm | 4.47 m/s, 150° | - | - |
| 1788071232 | 23.89° C | 74% | 1019.3 hPa | 0 mm | 16.99 m/s, 300° | - | - |
| 1788070932 | 23.89° C | 74% | 1019 hPa | 0 mm | 2.68 m/s, 288° | - | - |
| 1788070632 | 23.89° C | 72% | 1019.3 hPa | 0 mm | 4.47 m/s, 176° | - | - |
| 1788070332 | 23.89° C | 73% | 1019 hPa | 0 mm | 6.26 m/s, 132° | - | - |
| 1788070032 | 23.89° C | 73% | 1019 hPa | 0 mm | 11.18 m/s, 262° | - | - |
| 1788069732 | 23.89° C | 74% | 1019 hPa | 0 mm | 3.58 m/s, 283° | - | - |
| 1788069442 | 23.89° C | 74% | 1019 hPa | 0 mm | 11.18 m/s, 30° | - | - |
| 1788069131 | 23.89° C | 72% | 1019 hPa | 0 mm | 1.79 m/s, 250° | - | - |
| 1788068831 | 23.33° C | 73% | 1019 hPa | 0 mm | 15.2 m/s, 256° | - | - |
| 1788068531 | 23.33° C | 72% | 1019 hPa | 0 mm | 13.86 m/s, 294° | - | - |
| 1788068231 | 23.33° C | 72% | 1019 hPa | 0 mm | 11.18 m/s, 324° | - | - |
| 1788067931 | 23.33° C | 73% | 1019 hPa | 0 mm | 7.15 m/s, 312° | - | - |
| 1788067631 | 23.33° C | 73% | 1019 hPa | 0 mm | 6.26 m/s, 269° | - | - |
| 1788067331 | 23.33° C | 74% | 1019 hPa | 0 mm | 10.28 m/s, 291° | - | - |
| 1788067031 | 23.33° C | 74% | 1019 hPa | 0 mm | 8.94 m/s, 258° | - | - |
| 1788066731 | 23.33° C | 76% | 1019 hPa | 0 mm | 4.47 m/s, 300° | - | - |
| 1788066430 | 23.33° C | 76% | 1019 hPa | 0 mm | 8.94 m/s, 312° | - | - |
| 1788066130 | 23.33° C | 76% | 1019 hPa | 0 mm | 6.26 m/s, 228° | - | - |
* Rain latest hour (hover to see other rain measurements)
** Current wind speed in m/s (hover to see current wind gust speed)